Погода в Сулаке

Россия / Саратовская область     51°50′39″N   48°20′53″E
темп.,
°C
ветер,
м/с
пор.,
м/с
влажн.,
%
обл.,
%
осадки,
мм/ч
давл.,
гПа
погр.,
м
25 июня, сб
сб2501:00+17ссв6128898 0.0 1007525
04:00+15ссв61284100 0.0 1008446
07:00+16св61379100 0.1 1009578
10:00+19св6127096 0.1 1010625
13:00+24св794990 0.0 10111399
16:00+25ссв685199 0.0 10111109
19:00+23ссв595968 0.0 1012583
22:00+19с34743 0.0 101350
26 июня, вс
вс2601:00+17с38845 0.0 1014138
04:00+15ссв411870 0.0 1014211
07:00+18ссв49720 0.0 1015302
10:00+22ссв67510 0.0 10161040
13:00+24с78450 0.0 10161820
16:00+23с78420 0.0 10161658
19:00+20ссв79550 0.0 1017903
22:00+15ссв49680 0.0 1019172
27 июня, пн
пн2701:00+14ссв35720 0.0 101985
04:00+12ссв34810 0.0 102046
07:00+16ссв34690 0.0 1020190
10:00+20с34500 0.0 1020991
13:00+23с34400 0.0 10191227
16:00+25сз34430 0.0 10171265
19:00+25з46570 0.0 1016404
22:00+20з497835 0.6 1015140
28 июня, вт
вт2801:00+19з49902 1.6 1014172
04:00+18ссз35930 1.6 101477
07:00+18ссв69850 0.0 1015452
10:00+20ссв78550 0.0 1016939
13:00+21ссв88460 0.0 10171570
16:00+21ссв78440 0.0 10171907
19:00+18св67540 0.0 10181081
22:00+13св5106612 0.0 1020298
29 июня, ср
ср2901:00+10св37700 0.0 1020169
04:00+9ссв22760 0.0 102119
07:00+12с34690 0.0 1021262
10:00+17с45480 0.0 10211553
13:00+19с66425 0.0 10201933
16:00+20с774350 0.0 10202033
19:00+17ссв58600 0.0 10201054
22:00+13ссв33730 0.0 102140